Cherokee, IA

8:00 AM CST on December 04, 2016 (GMT -0600)
Cherokee Municipal

Weather History for KCKP - January, 2014

Change the Weather History Date:

Friday, January 24, 2014

  Actual Average Record
Temperature  
Mean Temperature 26 °F -  
Max Temperature 42 °F 28 °F 61 °F (1981)
Min Temperature 9 °F 7 °F -19 °F (1961)
Degree Days  
Heating Degree Days 40    
Moisture  
Dew Point 18 °F    
Average Humidity 63    
Maximum Humidity 82    
Minimum Humidity 46    
Precipitation  
Precipitation 0.00 in - - ()
Sea Level Pressure  
Sea Level Pressure 29.84 in    
Wind  
Wind Speed 15 mph (WSW)    
Max Wind Speed 22 mph    
Max Gust Speed 30 mph    
Visibility 10 miles    
Events Rain    
Averages and records for this station are not official NWS values.
T = Trace of Precipitation, MM = Missing Value Source: NWS Daily Summary

Daily Weather History Graph

Daily Weather History Graph

Search for Another Location

Airport or City:

Trip Planner

Search our weather history database for the weather conditions in past years. The results will help you decide how hot, cold, wet, or windy it might be!

Date:

Astronomy

Jan. 24, 2014 Rise Set
Actual Time 7:44 AM CST 5:25 PM CST
Civil Twilight 7:13 AM CST 5:55 PM CST
Nautical Twilight 6:39 AM CST 6:30 PM CST
Astronomical Twilight 6:05 AM CST 7:03 PM CST
Moon 1:10 AM CST (1/24) 11:45 AM CST (1/24)
Length of Visible Light 10h 42m
Length of Day
9h 41m
Last Quarter, 44% of the Moon is Illuminated
Jan 24
Last Quarter
Jan 30
New
Feb 6
First Quarter
Feb 14
Full
Feb 22
Last Quarter

Hourly Weather History & Observations

Time (CST) Temp. Windchill Dew Point Humidity Pressure Visibility Wind Dir Wind Speed Gust Speed Precip Events Conditions
12:15 AM 9.0 °F -7.9 °F -4.2 °F 55% 30.28 in 10.0 mi SSW 15.0 mph 19.6 mph N/A   Clear
12:35 AM 10.0 °F -7.1 °F -4.4 °F 52% 30.25 in 10.0 mi SSW 16.1 mph 21.9 mph N/A   Clear
12:55 AM 11.3 °F -7.0 °F -4.7 °F 49% 30.22 in 10.0 mi SSW 19.6 mph 24.2 mph N/A   Clear
1:15 AM 12.0 °F -5.1 °F -4.9 °F 47% 30.21 in 10.0 mi SSW 17.3 mph - N/A   Clear
1:35 AM 12.6 °F -4.4 °F -4.7 °F 46% 30.19 in 10.0 mi SSW 17.3 mph 24.2 mph N/A   Clear
1:55 AM 12.9 °F -4.9 °F -4.0 °F 47% 30.17 in 10.0 mi SW 19.6 mph 26.5 mph N/A   Clear
2:15 AM 13.5 °F -4.2 °F -2.7 °F 49% 30.16 in 10.0 mi SW 19.6 mph 29.9 mph N/A   Clear
2:35 AM 13.8 °F -3.7 °F -2.0 °F 49% 30.15 in 10.0 mi SW 19.6 mph 29.9 mph N/A   Clear
2:55 AM 13.8 °F -2.7 °F -1.3 °F 51% 30.13 in 10.0 mi SSW 17.3 mph 25.3 mph N/A   Clear
3:15 AM 14.4 °F -2.0 °F -0.4 °F 52% 30.11 in 10.0 mi SSW 17.3 mph 26.5 mph N/A   Clear
3:35 AM 14.2 °F -3.2 °F 0.5 °F 55% 30.09 in 10.0 mi SSW 19.6 mph 23.0 mph N/A   Clear
3:55 AM 14.4 °F -2.5 °F 1.4 °F 56% 30.07 in 10.0 mi SSW 18.4 mph 23.0 mph N/A   Clear
4:15 AM 14.7 °F -1.6 °F 2.1 °F 57% 30.04 in 10.0 mi SSW 17.3 mph 25.3 mph N/A   Clear
4:35 AM 14.9 °F -0.8 °F 3.0 °F 59% 30.03 in 10.0 mi SW 16.1 mph 21.9 mph N/A   Clear
4:55 AM 15.4 °F -0.1 °F 3.9 °F 60% 30.02 in 10.0 mi SW 16.1 mph 21.9 mph N/A   Clear
5:15 AM 16.2 °F 2.5 °F 4.8 °F 61% 30.00 in 10.0 mi SW 12.7 mph 21.9 mph N/A   Scattered Clouds
5:35 AM 16.5 °F 1.8 °F 5.5 °F 62% 29.98 in 10.0 mi SW 15.0 mph 24.2 mph N/A   Scattered Clouds
5:55 AM 17.1 °F 3.0 °F 5.9 °F 62% 29.97 in 10.0 mi SW 13.8 mph 20.7 mph N/A   Scattered Clouds
6:15 AM 17.6 °F 3.7 °F 6.8 °F 63% 29.96 in 10.0 mi SW 13.8 mph 18.4 mph N/A   Mostly Cloudy
6:35 AM 18.1 °F 4.4 °F 7.2 °F 62% 29.94 in 10.0 mi SSW 13.8 mph - N/A   Overcast
6:55 AM 18.3 °F 5.2 °F 7.5 °F 63% 29.95 in 10.0 mi SW 12.7 mph 19.6 mph N/A   Overcast
7:15 AM 18.7 °F 7.0 °F 7.7 °F 62% 29.94 in 10.0 mi SW 10.4 mph 18.4 mph N/A   Overcast
7:35 AM 19.2 °F 5.8 °F 8.1 °F 62% 29.92 in 10.0 mi SW 13.8 mph 18.4 mph N/A   Overcast
7:55 AM 19.2 °F 6.4 °F 8.1 °F 62% 29.92 in 10.0 mi SW 12.7 mph - N/A   Mostly Cloudy
8:15 AM 19.4 °F 6.6 °F 8.4 °F 62% 29.91 in 10.0 mi SW 12.7 mph - N/A   Overcast
8:35 AM 20.3 °F 7.7 °F 9.1 °F 62% 29.90 in 10.0 mi SW 12.7 mph - N/A   Overcast
8:55 AM 20.8 °F 9.7 °F 9.5 °F 62% 29.90 in 10.0 mi SW 10.4 mph 17.3 mph N/A   Overcast
9:15 AM 21.7 °F 9.0 °F 10.2 °F 61% 29.89 in 10.0 mi SW 13.8 mph - N/A   Overcast
9:35 AM 22.8 °F 10.9 °F 10.8 °F 60% 29.89 in 10.0 mi SW 12.7 mph 17.3 mph N/A   Overcast
9:55 AM 24.3 °F 12.2 °F 11.3 °F 58% 29.88 in 10.0 mi WSW 13.8 mph - N/A   Overcast
10:15 AM 25.3 °F 14.7 °F 12.0 °F 57% 29.87 in 10.0 mi SW 11.5 mph - N/A   Mostly Cloudy
10:35 AM 28.0 °F 18.1 °F 13.6 °F 55% 29.87 in 10.0 mi SW 11.5 mph - N/A   Scattered Clouds
10:55 AM 30.2 °F 21.9 °F 15.3 °F 54% 29.86 in 10.0 mi WSW 9.2 mph - N/A   Mostly Cloudy
11:15 AM 32.0 °F 23.0 °F 16.0 °F 52% 29.84 in 10.0 mi WSW 11.5 mph 20.7 mph N/A   Mostly Cloudy
11:35 AM 33.8 °F 24.8 °F 17.2 °F 51% 29.83 in 10.0 mi WSW 12.7 mph 19.6 mph N/A   Mostly Cloudy
11:55 AM 35.4 °F 27.3 °F 19.8 °F 53% 29.82 in 10.0 mi West 11.5 mph - N/A   Overcast
12:15 PM 37.0 °F 27.4 °F 23.4 °F 58% 29.81 in 10.0 mi West 17.3 mph 21.9 mph N/A   Overcast
12:35 PM 37.4 °F 27.8 °F 24.8 °F 60% 29.80 in 10.0 mi WNW 17.3 mph 23.0 mph N/A   Overcast
12:55 PM 37.9 °F 29.2 °F 26.6 °F 64% 29.78 in 10.0 mi WNW 15.0 mph 25.3 mph N/A   Overcast
1:15 PM 38.8 °F 29.1 °F 27.5 °F 64% 29.77 in 10.0 mi WNW 19.6 mph 26.5 mph N/A   Overcast
1:35 PM 40.1 °F 30.5 °F 28.0 °F 62% 29.76 in 10.0 mi WNW 20.7 mph 27.6 mph N/A   Scattered Clouds
1:55 PM 40.1 °F 31.3 °F 28.0 °F 62% 29.74 in 10.0 mi West 17.3 mph 24.2 mph N/A   Scattered Clouds
2:15 PM 40.3 °F 32.6 °F 28.4 °F 63% 29.72 in 10.0 mi West 13.8 mph 23.0 mph N/A   Scattered Clouds
2:35 PM 40.6 °F 32.7 °F 28.4 °F 62% 29.71 in 10.0 mi West 15.0 mph 24.2 mph N/A   Scattered Clouds
2:55 PM 40.8 °F 32.0 °F 27.9 °F 60% 29.71 in 10.0 mi West 18.4 mph 25.3 mph N/A   Overcast
3:15 PM 41.0 °F 34.3 °F 28.4 °F 61% 29.71 in 10.0 mi West 11.5 mph 20.7 mph N/A   Overcast
3:35 PM 41.0 °F 33.5 °F 28.6 °F 61% 29.69 in 10.0 mi West 13.8 mph 19.6 mph N/A   Overcast
3:55 PM 41.0 °F 33.5 °F 29.1 °F 63% 29.67 in 10.0 mi West 13.8 mph - N/A   Mostly Cloudy
4:15 PM 41.4 °F 33.0 °F 29.1 °F 62% 29.67 in 10.0 mi West 17.3 mph - N/A   Overcast
4:35 PM 41.2 °F 35.5 °F 29.3 °F 63% 29.65 in 10.0 mi West 9.2 mph 18.4 mph N/A   Overcast
4:55 PM 41.0 °F 34.7 °F 29.3 °F 63% 29.65 in 10.0 mi West 10.4 mph - N/A   Overcast
5:15 PM 40.6 °F 33.0 °F 29.3 °F 64% 29.65 in 10.0 mi West 13.8 mph 17.3 mph N/A   Overcast
5:35 PM 40.5 °F 34.1 °F 30.2 °F 67% 29.65 in 10.0 mi West 10.4 mph - N/A   Overcast
5:55 PM 40.6 °F 33.8 °F 30.9 °F 68% 29.65 in 10.0 mi West 11.5 mph 19.6 mph N/A   Light Drizzle
6:15 PM 40.1 °F 34.1 °F 32.7 °F 75% 29.64 in 10.0 mi West 9.2 mph - N/A Rain Light Rain
6:35 PM 39.4 °F 33.8 °F 32.9 °F 78% 29.62 in 10.0 mi West 8.1 mph - N/A Rain Light Rain
6:55 PM 39.6 °F 33.0 °F 32.9 °F 77% 29.63 in 10.0 mi West 10.4 mph 17.3 mph N/A   Overcast
7:15 PM 40.8 °F 33.7 °F 33.6 °F 76% 29.63 in 10.0 mi WNW 12.7 mph - N/A   Overcast
7:35 PM 41.4 °F 35.2 °F 34.0 °F 75% 29.62 in 10.0 mi WNW 10.4 mph 25.3 mph N/A   Overcast
7:55 PM 41.9 °F 34.0 °F 34.7 °F 76% 29.62 in 10.0 mi NW 16.1 mph 23.0 mph N/A   Overcast
8:15 PM 42.1 °F 33.9 °F 34.7 °F 75% 29.63 in 10.0 mi NW 17.3 mph 28.8 mph N/A   Overcast
8:35 PM 41.7 °F 34.4 °F 34.9 °F 77% 29.63 in 10.0 mi NW 13.8 mph 27.6 mph N/A   Overcast
8:55 PM 41.2 °F 32.7 °F 34.7 °F 78% 29.63 in 10.0 mi NW 17.3 mph 24.2 mph N/A   Overcast
9:15 PM 40.6 °F 31.7 °F 33.8 °F 77% 29.64 in 10.0 mi NW 18.4 mph 26.5 mph N/A   Overcast
9:35 PM 40.3 °F 30.4 °F 33.1 °F 75% 29.65 in 10.0 mi NW 21.9 mph 27.6 mph N/A   Overcast
9:55 PM 39.6 °F 29.7 °F 33.1 °F 78% 29.66 in 10.0 mi NW 20.7 mph 29.9 mph N/A   Overcast
10:15 PM 39.2 °F 30.5 °F 32.9 °F 78% 29.67 in 10.0 mi NW 16.1 mph 28.8 mph N/A   Overcast
10:35 PM 38.7 °F 29.5 °F 32.4 °F 78% 29.67 in 10.0 mi NW 17.3 mph 28.8 mph N/A   Overcast
10:55 PM 38.1 °F 29.5 °F 32.0 °F 79% 29.68 in 10.0 mi NW 15.0 mph 21.9 mph N/A   Overcast
11:15 PM 37.6 °F 28.4 °F 32.2 °F 81% 29.69 in 10.0 mi NW 16.1 mph 23.0 mph N/A   Mostly Cloudy
11:35 PM 37.4 °F 28.5 °F 32.0 °F 81% 29.70 in 10.0 mi NNW 15.0 mph 23.0 mph N/A   Overcast
11:55 PM 36.7 °F 27.6 °F 31.6 °F 82% 29.71 in 10.0 mi NW 15.0 mph 23.0 mph N/A   Mostly Cloudy